GFSNIL_925_spd_000.txt.gz
Wind_Speed
16 13 10 11 10 11 11 10 7 6 4 2 1 7 7 9 4 5 4 4 4 5
19 16 14 15 15 11 9 9 8 6 7 6 5 6 6 4 5 5 7 8 8 8
21 18 16 15 14 12 10 10 9 7 6 7 8 9 9 9 9 11 11 11 10 10
24 22 20 17 13 11 11 10 9 10 10 11 10 9 11 13 13 14 13 13 13 14
25 24 25 22 16 12 13 11 11 11 12 11 11 11 12 13 13 14 15 15 14 15
28 28 27 23 19 17 15 15 13 13 12 13 13 13 12 12 15 15 15 17 17 15
32 31 25 22 23 21 19 19 17 16 15 15 14 15 15 17 17 15 14 15 16 18
38 31 25 24 25 24 23 22 19 17 17 16 15 15 15 13 9 11 12 13 15 17
36 30 29 26 25 25 25 23 21 19 18 18 16 14 12 12 11 12 12 15 19 17
36 33 34 31 27 26 28 25 25 22 20 20 18 16 15 14 14 15 17 20 20 16
40 39 38 34 31 29 28 27 26 23 22 20 20 16 14 17 16 16 17 15 14 15
41 40 37 35 34 32 31 29 24 19 15 23 21 17 16 13 13 14 14 12 10 10
39 37 38 39 36 33 31 30 22 19 24 22 18 13 11 12 12 12 14 12 10 10
33 40 43 40 33 30 26 14 11 8 15 14 10 8 9 10 11 10 10 12 15 11

GFSNIL_925_spd_003.txt.gz
Wind_Speed
24 21 20 21 19 17 15 12 13 11 9 7 6 5 4 7 9 6 7 9 9 8
25 22 18 20 18 16 15 14 13 11 10 9 9 8 6 7 6 9 9 11 13 13
29 25 21 21 20 19 17 16 14 12 11 10 9 10 11 11 11 13 14 13 14 16
30 25 23 20 19 19 17 15 14 13 13 13 12 12 13 14 14 15 14 14 14 15
32 28 25 21 20 19 18 16 15 13 14 14 13 11 13 14 14 14 15 15 15 17
35 32 29 26 24 23 20 18 16 13 13 12 12 13 14 15 17 16 15 17 18 18
41 38 33 31 31 29 25 21 18 15 13 13 15 15 17 18 18 16 15 15 17 17
43 39 36 32 31 31 28 25 19 17 17 18 19 19 18 17 14 13 13 14 16 18
41 37 38 32 30 30 31 28 22 23 22 21 22 20 17 15 14 15 15 16 17 19
45 44 42 36 31 29 32 29 27 26 24 24 23 20 18 17 18 19 19 16 16 16
35 47 39 36 32 32 31 30 28 28 25 24 24 20 18 18 21 18 19 16 14 14
50 42 35 34 32 34 31 27 28 27 26 21 19 15 19 18 19 16 16 15 13 13
42 33 30 33 32 28 30 28 31 23 19 21 23 19 16 14 16 17 16 16 12 10
22 17 12 8 4 9 20 27 24 14 20 22 20 18 14 15 19 17 15 15 13 11

GFSNIL_925_spd_006.txt.gz
Wind_Speed
29 26 21 19 22 22 19 16 14 14 12 9 8 8 6 6 9 9 7 9 10 11
31 28 24 20 22 21 18 16 15 14 12 13 12 11 10 7 7 6 9 10 12 15
34 31 26 22 24 22 20 18 17 15 14 14 14 12 12 11 10 11 12 15 15 15
37 33 28 25 24 24 21 19 19 18 17 17 15 14 13 12 12 13 14 15 16 17
38 36 32 29 27 24 23 22 20 20 19 18 18 16 14 11 11 13 14 14 15 18
40 40 38 33 28 27 25 22 22 21 21 20 18 15 13 12 13 15 17 17 18 18
44 45 43 35 32 27 27 24 24 23 21 19 16 15 14 14 15 17 19 18 17 16
49 48 46 39 33 29 28 28 26 24 23 19 18 17 16 16 17 19 17 16 16 15
38 45 51 40 37 36 31 32 31 28 25 21 20 18 19 20 21 20 18 18 17 17
32 28 26 14 26 36 29 34 36 28 27 25 22 17 22 21 20 20 21 19 20 20
31 33 35 30 35 35 34 31 29 27 27 26 24 18 22 20 19 20 20 21 19 17
34 35 39 38 35 33 31 24 22 21 23 23 26 22 22 17 19 19 18 17 16 14
34 33 35 25 20 19 15 8 9 4 7 16 29 28 20 19 17 15 14 15 15 13
24 21 15 15 19 16 12 11 10 10 9 10 18 39 23 16 13 13 14 15 14 11

GFSNIL_925_spd_009.txt.gz
Wind_Speed
28 23 22 21 17 17 18 17 16 16 15 16 13 12 11 7 6 7 7 8 8 8
28 26 23 23 23 20 22 16 17 16 17 17 15 13 10 8 7 7 9 10 10 10
28 29 27 25 23 21 22 21 19 19 19 16 15 13 11 10 10 9 10 10 10 11
26 29 27 27 30 26 25 24 22 22 20 17 16 14 13 13 12 12 12 12 11 12
31 36 38 37 29 25 26 26 26 23 21 19 16 14 14 13 13 13 13 12 10 12
34 36 38 38 34 35 26 26 25 22 22 20 16 16 16 17 14 13 13 13 13 13
35 42 45 37 37 31 26 27 26 24 22 18 16 17 15 15 15 15 14 15 14 15
33 28 26 24 23 24 16 17 22 25 24 21 22 17 18 17 15 15 15 14 15 15
24 23 24 25 27 36 37 31 27 36 28 26 21 19 20 18 16 14 16 16 14 15
22 24 27 30 33 41 38 34 35 35 34 33 29 23 21 19 19 18 17 16 16 15
21 23 26 31 36 40 34 33 37 36 35 34 29 27 20 17 16 18 17 15 16 16
23 25 29 32 34 34 31 30 27 26 22 19 21 21 22 16 14 18 22 17 16 14
20 21 23 26 28 22 16 16 19 17 15 19 21 23 25 24 21 18 24 17 15 13
20 23 23 24 22 18 19 19 19 12 22 17 15 20 20 23 15 14 16 15 10 7

GFSNIL_925_spd_012.txt.gz
Wind_Speed
25 23 21 19 16 16 14 13 13 15 13 12 11 10 9 8 8 6 6 6 6 7
25 24 22 19 18 16 14 13 15 15 13 12 13 12 11 11 9 8 8 9 10 10
26 25 25 23 22 21 18 19 16 16 16 15 14 13 13 11 11 10 10 10 10 12
28 28 27 27 27 23 20 20 20 18 16 16 14 13 14 13 11 11 11 12 12 13
29 30 30 30 26 25 24 22 15 16 15 12 13 15 16 15 12 13 13 13 13 13
32 32 32 31 27 28 22 21 27 24 18 15 13 16 15 15 15 14 14 14 14 15
33 33 30 27 28 28 32 26 27 21 11 12 13 17 16 18 17 16 15 16 17 16
25 25 26 27 28 29 31 34 33 27 19 13 21 21 19 19 18 18 16 17 17 17
23 23 27 28 29 28 33 37 37 32 20 28 37 32 25 23 19 18 16 17 17 17
23 23 25 28 28 27 32 35 42 38 28 35 32 32 27 25 22 19 19 18 16 16
22 22 24 28 31 29 30 32 29 22 25 29 31 28 27 26 23 22 23 22 18 18
24 25 25 28 30 29 29 30 28 26 23 24 23 25 25 28 24 22 24 19 17 17
19 20 22 25 26 28 30 28 25 23 23 23 25 20 30 27 17 21 22 19 16 17
18 18 18 19 20 23 25 25 23 22 22 25 20 21 18 19 20 22 17 18 15 11

GFSNIL_925_spd_015.txt.gz
Wind_Speed
26 24 22 20 16 17 15 14 15 17 14 12 11 10 8 8 8 7 5 5 5 7
27 28 26 22 24 18 18 15 16 17 16 14 14 12 11 10 9 6 7 9 8 8
29 28 26 23 22 23 18 18 18 18 18 17 14 13 12 10 10 9 10 10 8 8
30 30 29 28 26 23 21 21 18 19 17 16 16 12 10 10 8 11 12 11 10 9
30 30 31 31 27 26 26 22 23 22 21 19 16 14 12 11 12 13 14 13 13 13
33 33 34 31 29 29 27 26 25 25 26 24 25 25 22 18 19 18 15 15 15 15
35 35 32 30 31 30 31 31 31 32 30 33 32 28 26 20 24 21 20 18 18 16
34 32 31 31 31 30 31 31 33 36 35 38 36 36 25 19 24 23 20 20 18 19
32 32 31 29 29 29 29 30 31 35 37 39 32 26 24 21 24 22 19 20 20 21
30 31 30 28 27 30 31 29 32 30 30 30 25 22 24 22 20 20 19 22 21 17
27 26 26 27 29 27 28 28 29 29 28 25 21 21 20 22 24 21 22 22 18 17
25 25 25 26 25 26 26 25 28 27 27 25 19 16 20 24 25 26 26 21 17 17
24 24 24 23 23 23 22 23 25 24 26 25 25 22 23 26 24 18 21 18 19 19
21 21 21 19 20 20 19 18 21 21 22 23 21 20 24 22 21 17 22 18 19 19

GFSNIL_925_spd_021.txt.gz
Wind_Speed
37 32 31 27 29 29 28 25 26 24 23 21 20 19 16 16 15 14 18 22 21 11
37 36 33 29 22 27 23 24 27 30 28 25 21 23 21 19 19 18 15 15 13 15
41 40 37 28 31 24 27 23 31 34 32 28 24 24 24 23 19 20 22 19 16 12
37 40 38 35 33 33 26 27 23 36 35 32 29 28 28 26 24 25 24 22 20 19
35 36 39 40 36 36 33 31 32 34 37 35 33 31 31 30 27 28 27 25 22 19
36 36 37 41 40 36 38 38 34 36 39 39 35 33 34 33 30 28 27 30 25 23
38 41 40 38 39 42 38 41 41 39 41 41 38 36 35 34 32 33 28 26 27 26
40 38 36 36 36 39 38 40 42 40 39 39 37 37 38 40 37 34 29 26 22 26
37 37 37 36 35 35 39 35 39 39 38 37 38 39 38 40 37 33 31 27 24 24
38 37 38 35 35 36 36 33 36 36 37 38 38 38 35 33 32 31 28 26 26 24
41 40 37 37 36 36 33 35 33 35 36 36 34 35 35 31 28 27 24 22 23 24
42 40 38 36 36 33 32 29 28 33 32 32 32 30 29 27 27 27 23 21 23 25
40 38 37 36 34 30 29 27 30 27 29 33 32 28 28 25 27 27 27 29 25 23
36 35 34 34 31 30 29 27 27 28 25 25 26 24 23 22 24 26 27 26 26 27

GFSNIL_925_spd_024.txt.gz
Wind_Speed
41 36 33 30 31 26 29 35 30 30 29 25 24 21 21 18 16 15 16 14 11 8
42 39 37 34 29 28 33 35 32 31 30 29 25 23 23 20 17 15 15 17 12 12
45 43 39 36 34 30 35 33 34 32 32 30 26 25 25 22 20 18 19 16 15 15
41 42 41 41 37 35 35 36 35 35 34 33 31 28 29 27 24 21 22 21 21 18
38 39 41 45 43 36 36 38 35 35 38 38 36 32 32 31 30 28 27 25 22 22
37 38 43 45 42 44 39 40 37 36 36 40 39 37 34 34 34 33 29 28 25 24
39 42 44 45 42 42 44 42 42 38 36 37 40 39 38 36 36 34 29 28 27 27
43 41 40 39 39 40 40 42 42 41 38 37 39 42 42 39 38 37 33 31 28 23
40 39 39 38 37 37 38 40 41 40 40 40 40 41 42 40 40 37 35 33 31 25
39 39 40 38 35 35 37 35 38 39 38 40 41 42 41 39 39 34 31 29 30 24
39 39 38 37 37 35 34 35 36 37 39 40 42 41 39 37 36 32 30 31 30 27
40 38 36 37 36 34 32 31 33 38 39 40 41 39 38 33 31 28 26 25 25 24
41 38 38 37 35 33 34 34 32 33 36 39 38 37 35 32 31 26 24 23 22 22
39 40 38 34 33 33 33 28 30 29 30 31 35 32 29 28 27 26 26 26 25 23

GFSNIL_925_spd_027.txt.gz
Wind_Speed
44 42 41 39 34 31 29 26 27 31 29 26 24 22 22 21 19 16 16 15 12 9
44 41 39 40 35 32 32 28 28 32 32 30 28 26 23 24 22 19 17 17 13 12
45 45 42 40 36 33 33 32 31 34 34 32 31 29 26 26 24 21 18 16 16 14
39 41 41 42 39 37 33 31 32 34 35 34 34 32 29 28 27 24 20 19 16 14
40 38 40 44 42 40 39 36 32 34 36 36 36 35 33 31 30 28 25 22 21 19
38 39 41 45 43 44 41 39 36 38 39 39 38 38 36 34 32 30 28 25 23 22
40 42 43 45 42 42 46 43 41 41 41 40 39 39 38 37 35 33 31 28 27 26
42 42 40 41 41 41 41 44 45 42 41 42 41 41 41 40 39 37 34 31 31 28
40 39 40 38 37 40 41 40 42 45 44 45 44 42 39 39 40 39 37 34 30 26
39 38 38 35 34 37 38 38 42 42 44 45 45 43 40 38 38 38 37 35 28 31
38 39 37 37 38 36 37 40 38 42 44 42 46 43 41 37 37 35 33 27 27 29
41 40 38 39 40 36 33 32 36 35 38 42 41 41 38 34 35 32 28 27 24 26
43 40 40 43 40 38 35 35 30 31 38 39 39 37 35 34 33 31 30 26 23 22
37 40 41 37 34 36 35 31 31 29 29 36 36 35 33 33 34 30 27 24 23 22

GFSNIL_925_spd_030.txt.gz
Wind_Speed
46 40 42 39 37 33 33 31 29 26 26 27 24 21 20 21 19 17 15 14 12 10
44 40 37 39 41 38 34 30 28 28 28 30 28 25 23 23 22 19 17 16 15 13
45 46 43 41 42 40 37 33 30 28 27 31 31 28 26 26 24 22 20 18 17 16
39 41 41 42 44 41 38 36 32 32 28 30 33 31 29 29 26 25 22 19 18 17
42 42 41 44 45 42 39 37 33 34 33 31 34 34 33 33 30 28 26 24 21 20
39 40 41 43 42 44 40 38 37 35 35 34 36 36 35 35 34 30 29 28 26 24
41 43 43 43 43 45 44 42 40 42 40 37 37 37 36 37 37 34 31 30 29 27
40 42 41 40 42 43 44 46 45 44 44 43 40 40 39 38 39 37 35 33 31 30
37 39 40 40 40 41 43 42 42 44 45 44 45 44 42 40 39 39 38 37 35 34
39 39 39 38 38 40 40 41 42 41 41 44 46 45 43 40 38 38 37 37 37 33
38 40 37 36 39 41 39 41 40 41 43 40 44 45 44 41 40 39 36 35 34 29
40 38 37 39 41 39 36 37 40 36 37 41 40 45 45 42 41 38 36 33 29 25
41 40 39 41 39 37 35 34 31 33 37 42 43 44 43 43 41 36 35 34 30 26
35 38 41 34 33 33 31 28 29 31 32 36 43 42 43 42 38 35 33 32 33 29

GFSNIL_925_spd_033.txt.gz
Wind_Speed
38 33 34 29 26 24 21 22 21 24 22 19 20 20 17 14 15 15 12 13 12 9
38 36 33 32 33 28 25 22 23 25 25 22 21 22 19 15 18 17 15 14 14 11
41 41 39 33 33 32 28 30 24 26 24 24 22 23 22 18 18 19 16 14 14 15
37 37 36 36 36 36 34 35 32 30 25 25 23 23 25 23 20 22 20 19 17 17
39 39 38 39 38 37 36 37 36 34 29 26 25 25 27 26 23 25 22 21 19 19
39 38 39 39 38 37 37 37 34 33 33 28 27 27 27 29 29 28 26 24 23 22
41 43 41 39 39 39 40 35 37 38 36 32 30 30 29 29 29 27 28 27 26 24
41 39 38 38 38 39 37 40 40 39 37 34 31 32 32 30 30 29 28 27 29 28
37 38 40 39 39 38 38 38 37 37 39 38 37 37 39 38 33 32 31 30 29 30
35 37 39 37 37 38 38 37 38 38 39 40 42 43 47 45 37 33 35 33 29 27
33 35 36 37 40 39 38 39 39 38 39 39 42 46 50 48 44 37 36 34 33 31
39 37 35 37 40 39 37 36 37 34 34 39 40 44 48 47 43 37 33 32 31 30
33 34 36 38 35 34 35 35 33 34 36 38 38 40 46 46 39 33 32 30 31 37
28 31 30 27 26 25 26 27 33 34 35 38 39 36 42 47 41 35 33 33 32 32

GFSNIL_925_spd_036.txt.gz
Wind_Speed
34 32 30 27 25 22 21 19 17 20 21 19 17 16 15 13 12 13 12 11 12 9
35 35 33 31 29 27 22 20 20 21 22 20 19 17 16 15 14 15 14 13 13 14
36 36 36 32 31 29 27 26 21 23 23 22 20 19 19 17 17 17 17 17 16 15
37 36 35 35 35 34 30 28 28 26 24 24 23 23 22 21 19 21 20 19 19 18
38 37 37 37 36 34 33 32 31 30 27 26 25 25 25 25 24 24 23 23 21 20
38 38 38 37 38 37 36 35 33 32 32 30 29 28 28 27 27 26 26 25 25 23
40 41 39 39 39 39 39 37 36 36 34 34 33 31 31 30 29 29 28 28 27 26
41 38 37 38 39 38 36 38 38 37 36 36 35 35 35 34 32 31 31 29 30 28
35 36 38 37 37 37 38 38 38 37 38 38 38 38 40 38 35 34 32 32 30 29
34 36 36 35 35 38 39 38 39 39 39 40 42 43 46 48 40 34 33 32 30 28
35 34 32 34 38 38 37 38 38 39 40 40 42 45 47 48 45 34 32 33 32 30
33 31 31 34 35 31 31 32 34 34 34 39 40 45 47 49 41 39 37 35 35 34
31 31 33 32 31 30 30 32 32 34 36 37 38 41 48 51 42 37 37 37 34 39
30 31 31 29 31 32 33 32 32 31 33 36 38 39 45 52 47 41 38 37 37 38

GFSNIL_925_spd_042.txt.gz
Wind_Speed
34 28 36 26 23 27 23 25 27 28 28 25 20 20 16 15 15 14 14 13 15 11
39 32 31 32 28 23 28 19 23 28 31 27 24 22 21 19 19 16 19 18 17 18
39 39 34 34 31 30 23 27 15 27 31 28 25 24 24 21 21 21 20 20 20 19
37 38 38 34 34 31 33 22 29 22 29 29 27 27 27 27 23 25 25 22 23 25
38 38 38 39 36 35 32 35 29 30 29 29 29 30 32 30 30 26 31 31 24 23
37 38 38 39 40 38 39 36 39 32 32 34 32 32 32 31 31 33 27 28 29 28
37 39 39 38 38 40 39 40 38 38 37 34 34 34 34 33 32 32 32 27 29 30
40 38 38 38 38 38 39 39 39 37 36 37 36 36 36 36 35 34 34 33 33 34
40 40 40 39 39 37 37 38 38 39 39 38 40 41 42 39 36 37 36 36 37 36
39 39 40 39 38 38 39 36 38 39 40 42 43 45 46 46 41 37 37 38 38 36
33 36 37 38 38 37 37 38 38 39 40 41 44 47 49 50 50 44 41 41 41 39
31 32 35 37 39 37 36 37 38 39 39 41 42 44 49 48 49 45 43 42 43 44
34 32 34 36 36 36 37 37 36 38 40 41 43 43 46 50 45 42 44 43 45 48
31 35 33 32 33 34 34 32 34 35 36 39 42 44 44 47 46 47 38 38 39 40

GFSNIL_925_spd_045.txt.gz
Wind_Speed
32 36 35 31 29 31 27 27 28 29 27 27 23 22 21 20 19 16 17 16 14 13
44 36 38 39 32 21 27 27 29 29 32 31 29 24 26 23 23 20 19 18 18 17
43 41 32 36 37 34 24 31 21 32 36 37 34 28 27 27 25 24 22 21 18 20
34 37 38 32 38 39 32 25 32 26 31 38 37 32 29 29 26 26 25 23 22 21
34 33 37 39 36 36 38 38 28 27 25 32 35 33 32 30 30 29 28 27 25 26
35 35 35 37 40 38 41 41 38 34 28 32 37 36 36 35 35 35 30 33 33 31
37 37 38 37 37 40 39 41 40 41 39 35 38 40 39 37 37 38 38 35 33 37
39 39 37 37 36 38 39 38 43 39 41 41 40 42 43 40 41 41 42 40 40 39
39 38 40 37 38 37 38 39 36 42 40 40 41 42 43 43 39 40 38 41 43 42
40 40 40 40 37 40 39 36 40 39 42 41 43 44 44 47 42 38 39 40 40 41
39 40 39 39 40 39 38 38 38 40 41 42 44 46 46 47 48 40 40 42 43 40
38 38 38 40 39 38 36 37 38 38 38 41 43 42 46 45 48 42 43 40 40 41
38 37 38 39 39 37 38 38 35 37 39 39 41 38 38 43 42 38 40 37 39 41
36 40 41 37 35 35 35 33 33 34 34 35 36 33 33 39 43 43 37 36 38 37

GFSNIL_925_spd_048.txt.gz
Wind_Speed
41 39 37 35 31 32 29 30 28 30 28 27 25 23 23 21 20 18 18 16 14 13
45 42 40 39 37 32 29 28 28 29 32 30 29 25 25 23 24 23 18 20 18 17
42 42 39 37 37 36 34 28 29 30 34 32 31 30 28 28 26 25 22 21 20 22
36 36 40 39 40 40 35 30 30 31 33 34 35 34 33 32 30 28 27 25 24 22
37 38 38 40 41 41 40 39 34 31 30 28 35 39 38 35 33 32 31 31 27 28
36 36 38 40 39 42 41 40 39 35 29 34 33 35 39 38 36 34 37 35 33 33
36 36 37 41 40 38 42 42 39 42 40 33 33 35 36 39 39 37 36 37 37 37
39 39 37 36 39 40 38 41 45 41 42 40 39 37 38 40 41 41 40 39 40 40
36 37 38 38 36 38 39 40 39 43 39 41 43 38 41 41 42 43 42 41 42 42
36 35 37 36 35 34 36 36 40 38 40 40 41 40 40 41 43 39 42 42 40 41
33 35 34 33 34 35 33 35 37 38 38 39 41 40 40 40 43 40 40 42 41 40
36 33 34 33 33 35 33 33 34 35 37 38 37 38 39 38 41 43 43 39 39 41
34 37 37 36 35 35 36 35 33 34 35 37 36 35 36 38 40 39 37 36 40 42
39 40 39 36 36 33 33 32 32 32 33 33 32 34 34 35 40 39 32 34 36 35